Year,Month,Day,Hour,Minute,Value (Times are PST for windspeed in km/hr)
2015,12,11,00,00,4.80
2015,12,11,00,01,1.90
2015,12,11,00,02,1.50
2015,12,11,00,03,2.90
2015,12,11,00,04,5.80
2015,12,11,00,05,4.40
2015,12,11,00,06,6.20
2015,12,11,00,07,3.40
2015,12,11,00,08,8.00
2015,12,11,00,09,6.90
2015,12,11,00,10,7.80
2015,12,11,00,11,9.70
2015,12,11,00,12,12.70
2015,12,11,00,13,13.20
2015,12,11,00,14,12.00
2015,12,11,00,15,13.80
2015,12,11,00,16,13.20
2015,12,11,00,17,14.80
2015,12,11,00,18,15.50
2015,12,11,00,19,15.20
2015,12,11,00,20,15.40
2015,12,11,00,21,16.20
2015,12,11,00,22,14.30
2015,12,11,00,23,6.40
2015,12,11,00,24,3.60
2015,12,11,00,25,2.80
2015,12,11,00,26,3.70
2015,12,11,00,27,4.20
2015,12,11,00,28,4.20
2015,12,11,00,29,3.10
2015,12,11,00,30,4.10
2015,12,11,00,31,3.30
2015,12,11,00,32,3.00
2015,12,11,00,33,2.40
2015,12,11,00,34,3.90
2015,12,11,00,35,4.00
2015,12,11,00,36,1.80
2015,12,11,00,37,2.80
2015,12,11,00,38,5.50
2015,12,11,00,39,6.40
2015,12,11,00,40,4.80
2015,12,11,00,41,5.10
2015,12,11,00,42,6.90
2015,12,11,00,43,6.00
2015,12,11,00,44,6.30
2015,12,11,00,45,2.80
2015,12,11,00,46,1.40
2015,12,11,00,47,1.20
2015,12,11,00,48,2.40
2015,12,11,00,49,2.60
2015,12,11,00,50,3.50
2015,12,11,00,51,3.10
2015,12,11,00,52,2.20
2015,12,11,00,53,2.80
2015,12,11,00,54,2.00
2015,12,11,00,55,1.00
2015,12,11,00,56,1.40
2015,12,11,00,57,2.30
2015,12,11,00,58,2.60
2015,12,11,00,59,1.20
2015,12,11,01,00,0.50
2015,12,11,01,01,2.30
2015,12,11,01,02,1.80
2015,12,11,01,03,3.50
2015,12,11,01,04,2.50
2015,12,11,01,05,4.10
2015,12,11,01,06,1.80
2015,12,11,01,07,1.30
2015,12,11,01,08,2.00
2015,12,11,01,09,1.20
2015,12,11,01,10,2.70
2015,12,11,01,11,1.30
2015,12,11,01,12,0.50
2015,12,11,01,13,1.10
2015,12,11,01,14,0.30
2015,12,11,01,15,5.70
2015,12,11,01,16,7.00
2015,12,11,01,17,6.80
2015,12,11,01,18,4.80
2015,12,11,01,19,4.50
2015,12,11,01,20,3.80
2015,12,11,01,21,5.70
2015,12,11,01,22,5.40
2015,12,11,01,23,5.70
2015,12,11,01,24,4.70
2015,12,11,01,25,4.80
2015,12,11,01,26,4.70
2015,12,11,01,27,3.70
2015,12,11,01,28,3.60
2015,12,11,01,29,4.60
2015,12,11,01,30,5.60
2015,12,11,01,31,3.20
2015,12,11,01,32,3.70
2015,12,11,01,33,2.60
2015,12,11,01,34,3.50
2015,12,11,01,35,3.10
2015,12,11,01,36,2.70
2015,12,11,01,37,3.10
2015,12,11,01,38,4.70
2015,12,11,01,39,4.00
2015,12,11,01,40,4.80
2015,12,11,01,41,3.80
2015,12,11,01,42,2.80
2015,12,11,01,43,3.90
2015,12,11,01,44,8.10
2015,12,11,01,45,7.10
2015,12,11,01,46,6.60
2015,12,11,01,47,6.40
2015,12,11,01,48,7.40
2015,12,11,01,49,5.70
2015,12,11,01,50,3.00
2015,12,11,01,51,4.20
2015,12,11,01,52,3.30
2015,12,11,01,53,2.60
2015,12,11,01,54,1.90
2015,12,11,01,55,3.00
2015,12,11,01,56,2.10
2015,12,11,01,57,3.10
2015,12,11,01,58,2.60
2015,12,11,01,59,2.20
2015,12,11,02,00,2.50
2015,12,11,02,01,1.50
2015,12,11,02,02,2.80
2015,12,11,02,03,3.10
2015,12,11,02,04,2.70
2015,12,11,02,05,5.60
2015,12,11,02,06,5.80
2015,12,11,02,07,5.60
2015,12,11,02,08,6.00
2015,12,11,02,09,6.00
2015,12,11,02,10,7.50
2015,12,11,02,11,6.60
2015,12,11,02,12,6.70
2015,12,11,02,13,6.50
2015,12,11,02,14,8.30
2015,12,11,02,15,7.70
2015,12,11,02,16,7.40
2015,12,11,02,17,6.10
2015,12,11,02,18,6.00
2015,12,11,02,19,5.40
2015,12,11,02,20,3.80
2015,12,11,02,21,3.40
2015,12,11,02,22,4.80
2015,12,11,02,23,4.90
2015,12,11,02,24,2.40
2015,12,11,02,25,0.50
2015,12,11,02,26,0.80
2015,12,11,02,27,3.10
2015,12,11,02,28,3.20
2015,12,11,02,29,3.10
2015,12,11,02,30,3.30
2015,12,11,02,31,4.50
2015,12,11,02,32,3.60
2015,12,11,02,33,3.30
2015,12,11,02,34,3.30
2015,12,11,02,35,4.00
2015,12,11,02,36,4.00
2015,12,11,02,37,4.80
2015,12,11,02,38,3.80
2015,12,11,02,39,5.80
2015,12,11,02,40,6.40
2015,12,11,02,41,5.60
2015,12,11,02,42,6.20
2015,12,11,02,43,8.10
2015,12,11,02,44,8.10
2015,12,11,02,45,10.10
2015,12,11,02,46,9.60
2015,12,11,02,47,7.50
2015,12,11,02,48,11.50
2015,12,11,02,49,7.30
2015,12,11,02,50,8.30
2015,12,11,02,51,9.00
2015,12,11,02,52,7.00
2015,12,11,02,53,9.40
2015,12,11,02,54,10.80
2015,12,11,02,55,9.80
2015,12,11,02,56,7.10
2015,12,11,02,57,8.40
2015,12,11,02,58,9.00
2015,12,11,02,59,6.40
2015,12,11,03,00,5.60
2015,12,11,03,01,4.40
2015,12,11,03,02,1.60
2015,12,11,03,03,1.20
2015,12,11,03,04,1.50
2015,12,11,03,05,1.00
2015,12,11,03,06,1.10
2015,12,11,03,07,2.00
2015,12,11,03,08,2.40
2015,12,11,03,09,1.00
2015,12,11,03,10,0.70
2015,12,11,03,11,1.80
2015,12,11,03,12,0.60
2015,12,11,03,13,0.20
2015,12,11,03,14,0.00
2015,12,11,03,15,0.00
2015,12,11,03,16,0.50
2015,12,11,03,17,2.80
2015,12,11,03,18,1.50
2015,12,11,03,19,1.40
2015,12,11,03,20,2.10
2015,12,11,03,21,2.40
2015,12,11,03,22,3.90
2015,12,11,03,23,4.00
2015,12,11,03,24,3.70
2015,12,11,03,25,6.00
2015,12,11,03,26,6.20
2015,12,11,03,27,7.30
2015,12,11,03,28,6.20
2015,12,11,03,29,5.40
2015,12,11,03,30,5.80
2015,12,11,03,31,1.80
2015,12,11,03,32,4.70
2015,12,11,03,33,3.40
2015,12,11,03,34,2.10
2015,12,11,03,35,2.40
2015,12,11,03,36,2.50
2015,12,11,03,37,2.00
2015,12,11,03,38,0.60
2015,12,11,03,39,2.20
2015,12,11,03,40,1.70
2015,12,11,03,41,0.60
2015,12,11,03,42,1.80
2015,12,11,03,43,1.60
2015,12,11,03,44,0.10
2015,12,11,03,45,0.00
2015,12,11,03,46,0.30
2015,12,11,03,47,0.20
2015,12,11,03,48,0.40
2015,12,11,03,49,0.20
2015,12,11,03,50,1.50
2015,12,11,03,51,0.00
2015,12,11,03,52,0.00
2015,12,11,03,53,0.00
2015,12,11,03,54,0.00
2015,12,11,03,55,0.00
2015,12,11,03,56,0.00
2015,12,11,03,57,0.00
2015,12,11,03,58,0.00
2015,12,11,03,59,0.00
2015,12,11,04,00,0.10
2015,12,11,04,01,0.00
2015,12,11,04,02,0.10
2015,12,11,04,03,1.10
2015,12,11,04,04,0.30
2015,12,11,04,05,0.40
2015,12,11,04,06,0.00
2015,12,11,04,07,0.00
2015,12,11,04,08,0.00
2015,12,11,04,09,0.00
2015,12,11,04,10,0.10
2015,12,11,04,11,1.50
2015,12,11,04,12,0.10
2015,12,11,04,13,0.10
2015,12,11,04,14,0.10
2015,12,11,04,15,2.80
2015,12,11,04,16,1.10
2015,12,11,04,17,0.10
2015,12,11,04,18,0.10
2015,12,11,04,19,1.40
2015,12,11,04,20,1.60
2015,12,11,04,21,2.20
2015,12,11,04,22,2.10
2015,12,11,04,23,2.20
2015,12,11,04,24,0.80
2015,12,11,04,25,2.20
2015,12,11,04,26,2.50
2015,12,11,04,27,4.80
2015,12,11,04,28,5.10
2015,12,11,04,29,3.50
2015,12,11,04,30,3.70
2015,12,11,04,31,5.20
2015,12,11,04,32,4.80
2015,12,11,04,33,5.30
2015,12,11,04,34,4.40
2015,12,11,04,35,3.40
2015,12,11,04,36,4.80
2015,12,11,04,37,4.40
2015,12,11,04,38,4.20
2015,12,11,04,39,3.60
2015,12,11,04,40,7.10
2015,12,11,04,41,4.80
2015,12,11,04,42,6.80
2015,12,11,04,43,6.40
2015,12,11,04,44,6.20
2015,12,11,04,45,6.60
2015,12,11,04,46,5.50
2015,12,11,04,47,5.70
2015,12,11,04,48,5.40
2015,12,11,04,49,3.40
2015,12,11,04,50,2.80
2015,12,11,04,51,0.40
2015,12,11,04,52,0.40
2015,12,11,04,53,0.30
2015,12,11,04,54,0.00
2015,12,11,04,55,0.50
2015,12,11,04,56,0.90
2015,12,11,04,57,0.40
2015,12,11,04,58,0.00
2015,12,11,04,59,0.00
2015,12,11,05,00,0.10
2015,12,11,05,01,0.00
2015,12,11,05,02,0.00
2015,12,11,05,03,0.00
2015,12,11,05,04,0.10
2015,12,11,05,05,0.50
2015,12,11,05,06,0.50
2015,12,11,05,07,1.50
2015,12,11,05,08,1.20
2015,12,11,05,09,1.10
2015,12,11,05,10,0.90
2015,12,11,05,11,2.10
2015,12,11,05,12,3.00
2015,12,11,05,13,2.30
2015,12,11,05,14,2.90
2015,12,11,05,15,3.80
2015,12,11,05,16,6.50
2015,12,11,05,17,5.60
2015,12,11,05,18,5.00
2015,12,11,05,19,4.70
2015,12,11,05,20,7.20
2015,12,11,05,21,8.10
2015,12,11,05,22,7.80
2015,12,11,05,23,6.80
2015,12,11,05,24,4.90
2015,12,11,05,25,4.50
2015,12,11,05,26,3.90
2015,12,11,05,27,5.00
2015,12,11,05,28,4.40
2015,12,11,05,29,3.30
2015,12,11,05,30,4.00
2015,12,11,05,31,2.60
2015,12,11,05,32,4.50
2015,12,11,05,33,0.50
2015,12,11,05,34,2.00
2015,12,11,05,35,2.80
2015,12,11,05,36,2.30
2015,12,11,05,37,2.20
2015,12,11,05,38,4.10
2015,12,11,05,39,3.80
2015,12,11,05,40,2.10
2015,12,11,05,41,2.70
2015,12,11,05,42,5.30
2015,12,11,05,43,3.80
2015,12,11,05,44,5.80
2015,12,11,05,45,7.80
2015,12,11,05,46,6.70
2015,12,11,05,47,7.10
2015,12,11,05,48,4.20
2015,12,11,05,49,5.90
2015,12,11,05,50,5.00
2015,12,11,05,51,8.00
2015,12,11,05,52,6.00
2015,12,11,05,53,5.50
2015,12,11,05,54,6.40
2015,12,11,05,55,5.70
2015,12,11,05,56,5.00
2015,12,11,05,57,3.00
2015,12,11,05,58,2.00
2015,12,11,05,59,1.80
2015,12,11,06,00,1.90
2015,12,11,06,01,1.90
2015,12,11,06,02,1.90
2015,12,11,06,03,3.30
2015,12,11,06,04,3.20
2015,12,11,06,05,1.30
2015,12,11,06,06,0.30
2015,12,11,06,07,0.00
2015,12,11,06,08,0.00
2015,12,11,06,09,0.00
2015,12,11,06,10,0.00
2015,12,11,06,11,0.00
2015,12,11,06,12,0.00
2015,12,11,06,13,0.00
2015,12,11,06,14,0.00
2015,12,11,06,15,0.00
2015,12,11,06,16,0.00
2015,12,11,06,17,0.00
2015,12,11,06,18,0.00
2015,12,11,06,19,0.00
2015,12,11,06,20,0.00
2015,12,11,06,21,0.00
2015,12,11,06,22,0.00
2015,12,11,06,23,0.00
2015,12,11,06,24,0.00
2015,12,11,06,25,0.00
2015,12,11,06,26,0.00
2015,12,11,06,27,0.00
2015,12,11,06,28,0.00
2015,12,11,06,29,0.00
2015,12,11,06,30,0.00
2015,12,11,06,31,0.00
2015,12,11,06,32,0.00
2015,12,11,06,33,0.00
2015,12,11,06,34,0.00
2015,12,11,06,35,0.00
2015,12,11,06,36,0.00
2015,12,11,06,37,0.00
2015,12,11,06,38,0.00
2015,12,11,06,39,0.00
2015,12,11,06,40,0.00
2015,12,11,06,41,0.00
2015,12,11,06,42,0.00
2015,12,11,06,43,0.00
2015,12,11,06,44,0.00
2015,12,11,06,45,0.00
2015,12,11,06,46,0.00
2015,12,11,06,47,0.00
2015,12,11,06,48,0.00
2015,12,11,06,49,0.00
2015,12,11,06,50,0.00
2015,12,11,06,51,0.00
2015,12,11,06,52,0.00
2015,12,11,06,53,0.00
2015,12,11,06,54,0.00
2015,12,11,06,55,0.00
2015,12,11,06,56,0.00
2015,12,11,06,57,0.00
2015,12,11,06,58,0.00
2015,12,11,06,59,0.00
2015,12,11,07,00,0.00
2015,12,11,07,01,0.00
2015,12,11,07,02,0.00
2015,12,11,07,03,0.00
2015,12,11,07,04,0.00
2015,12,11,07,05,0.00
2015,12,11,07,06,0.00
2015,12,11,07,07,0.00
2015,12,11,07,08,0.00
2015,12,11,07,09,0.00
2015,12,11,07,10,0.00
2015,12,11,07,11,0.00
2015,12,11,07,12,0.00
2015,12,11,07,13,0.00
2015,12,11,07,14,0.00
2015,12,11,07,15,0.00
2015,12,11,07,16,0.00
2015,12,11,07,17,0.00
2015,12,11,07,18,0.00
2015,12,11,07,19,0.00
2015,12,11,07,20,0.00
2015,12,11,07,21,0.00
2015,12,11,07,22,0.00
2015,12,11,07,23,0.00
2015,12,11,07,24,0.00
2015,12,11,07,25,0.00
2015,12,11,07,26,0.00
2015,12,11,07,27,0.00
2015,12,11,07,28,0.00
2015,12,11,07,29,0.00
2015,12,11,07,30,0.00
2015,12,11,07,31,0.00
2015,12,11,07,32,0.00
2015,12,11,07,33,0.00
2015,12,11,07,34,0.00
2015,12,11,07,35,0.00
2015,12,11,07,36,0.00
2015,12,11,07,37,0.00
2015,12,11,07,38,0.00
2015,12,11,07,39,0.00
2015,12,11,07,40,0.00
2015,12,11,07,41,0.00
2015,12,11,07,42,0.00
2015,12,11,07,43,0.00
2015,12,11,07,44,0.00
2015,12,11,07,45,0.00
2015,12,11,07,46,0.00
2015,12,11,07,47,0.00
2015,12,11,07,48,0.00
2015,12,11,07,49,0.00
2015,12,11,07,50,0.00
2015,12,11,07,51,0.00
2015,12,11,07,52,0.00
2015,12,11,07,53,0.00
2015,12,11,07,54,0.00
2015,12,11,07,55,0.00
2015,12,11,07,56,0.00
2015,12,11,07,57,0.00
2015,12,11,07,58,0.00
2015,12,11,07,59,0.00
2015,12,11,08,00,0.00
2015,12,11,08,01,0.00
2015,12,11,08,02,0.00
2015,12,11,08,03,0.00
2015,12,11,08,04,0.00
2015,12,11,08,05,0.00
2015,12,11,08,06,0.00
2015,12,11,08,07,0.00
2015,12,11,08,08,0.00
2015,12,11,08,09,0.00
2015,12,11,08,10,0.00
2015,12,11,08,11,0.00
2015,12,11,08,12,0.00
2015,12,11,08,13,0.00
2015,12,11,08,14,0.00
2015,12,11,08,15,0.00
2015,12,11,08,16,0.00
2015,12,11,08,17,0.00
2015,12,11,08,18,0.00
2015,12,11,08,19,0.00
2015,12,11,08,20,0.00
2015,12,11,08,21,0.00
2015,12,11,08,22,0.00
2015,12,11,08,23,0.00
2015,12,11,08,24,0.00
2015,12,11,08,25,0.00
2015,12,11,08,26,0.00
2015,12,11,08,27,0.00
2015,12,11,08,28,0.00
2015,12,11,08,29,0.00
2015,12,11,08,30,0.00
2015,12,11,08,31,0.00
2015,12,11,08,32,0.00
2015,12,11,08,33,0.00
2015,12,11,08,34,0.00
2015,12,11,08,35,0.00
2015,12,11,08,36,0.40
2015,12,11,08,37,2.20
2015,12,11,08,38,0.90
2015,12,11,08,39,2.30
2015,12,11,08,40,2.50
2015,12,11,08,41,0.50
2015,12,11,08,42,0.00
2015,12,11,08,43,0.00
2015,12,11,08,44,0.00
2015,12,11,08,45,0.00
2015,12,11,08,46,0.00
2015,12,11,08,47,0.20
2015,12,11,08,48,0.00
2015,12,11,08,49,0.00
2015,12,11,08,50,0.60
2015,12,11,08,51,0.60
2015,12,11,08,52,0.70
2015,12,11,08,53,0.60
2015,12,11,08,54,1.60
2015,12,11,08,55,0.60
2015,12,11,08,56,0.00
2015,12,11,08,57,0.00
2015,12,11,08,58,0.00
2015,12,11,08,59,0.00
2015,12,11,09,00,0.00
2015,12,11,09,01,0.00
2015,12,11,09,02,0.00
2015,12,11,09,03,0.00
2015,12,11,09,04,0.00
2015,12,11,09,05,0.00
2015,12,11,09,06,0.00
2015,12,11,09,07,0.00
2015,12,11,09,08,0.00
2015,12,11,09,09,0.00
2015,12,11,09,10,0.00
2015,12,11,09,11,0.00
2015,12,11,09,12,0.00
2015,12,11,09,13,0.00
2015,12,11,09,14,0.00
2015,12,11,09,15,0.00
2015,12,11,09,16,0.00
2015,12,11,09,17,0.00
2015,12,11,09,18,0.00
2015,12,11,09,19,0.00
2015,12,11,09,20,0.00
2015,12,11,09,21,0.00
2015,12,11,09,22,0.00
2015,12,11,09,23,0.00
2015,12,11,09,24,0.00
2015,12,11,09,25,0.00
2015,12,11,09,26,0.00
2015,12,11,09,27,0.00
2015,12,11,09,28,0.00
2015,12,11,09,29,0.00
2015,12,11,09,30,0.00
2015,12,11,09,31,0.00
2015,12,11,09,32,0.00
2015,12,11,09,33,0.00
2015,12,11,09,34,0.00
2015,12,11,09,35,0.00
2015,12,11,09,36,0.00
2015,12,11,09,37,0.00
2015,12,11,09,38,0.00
2015,12,11,09,39,0.00
2015,12,11,09,40,0.00
2015,12,11,09,41,0.00
2015,12,11,09,42,0.00
2015,12,11,09,43,0.00
2015,12,11,09,44,0.00
2015,12,11,09,45,0.00
2015,12,11,09,46,0.00
2015,12,11,09,47,0.00
2015,12,11,09,48,0.00
2015,12,11,09,49,0.00
2015,12,11,09,50,0.00
2015,12,11,09,51,0.00
2015,12,11,09,52,0.00
2015,12,11,09,53,0.00
2015,12,11,09,54,0.00
2015,12,11,09,55,0.00
2015,12,11,09,56,0.00
2015,12,11,09,57,0.00
2015,12,11,09,58,0.00
2015,12,11,09,59,0.00
2015,12,11,10,00,0.00
2015,12,11,10,01,0.00
2015,12,11,10,02,0.00
2015,12,11,10,03,0.00
2015,12,11,10,04,0.00
2015,12,11,10,05,0.00
2015,12,11,10,06,0.00
2015,12,11,10,07,0.00
2015,12,11,10,08,0.00
2015,12,11,10,09,0.00
2015,12,11,10,10,0.00
2015,12,11,10,11,0.00
2015,12,11,10,12,0.00
2015,12,11,10,13,0.00
2015,12,11,10,14,0.00
2015,12,11,10,15,0.00
2015,12,11,10,16,0.00
2015,12,11,10,17,0.00
2015,12,11,10,18,0.00
2015,12,11,10,19,0.00
2015,12,11,10,20,0.00
2015,12,11,10,21,0.00
2015,12,11,10,22,0.00
2015,12,11,10,23,0.00
2015,12,11,10,24,0.00
2015,12,11,10,25,0.00
2015,12,11,10,26,0.00
2015,12,11,10,27,0.00
2015,12,11,10,28,0.00
2015,12,11,10,29,0.00
2015,12,11,10,30,0.00
2015,12,11,10,31,0.00
2015,12,11,10,32,0.00
2015,12,11,10,33,0.00
2015,12,11,10,34,0.00
2015,12,11,10,35,0.00
2015,12,11,10,36,0.00
2015,12,11,10,37,0.00
2015,12,11,10,38,0.00
2015,12,11,10,39,0.00
2015,12,11,10,40,0.00
2015,12,11,10,41,0.00
2015,12,11,10,42,0.00
2015,12,11,10,43,0.00
2015,12,11,10,44,0.00
2015,12,11,10,45,0.00
2015,12,11,10,46,0.00
2015,12,11,10,47,0.00
2015,12,11,10,48,0.00
2015,12,11,10,49,0.00
2015,12,11,10,50,0.00
2015,12,11,10,51,0.00
2015,12,11,10,52,0.00
2015,12,11,10,53,0.00
2015,12,11,10,54,0.00
2015,12,11,10,55,0.00
2015,12,11,10,56,0.00
2015,12,11,10,57,0.00
2015,12,11,10,58,0.00
2015,12,11,10,59,0.00
2015,12,11,11,00,0.00
2015,12,11,11,01,0.00
2015,12,11,11,02,0.00
2015,12,11,11,03,0.00
2015,12,11,11,04,0.00
2015,12,11,11,05,0.00
2015,12,11,11,06,0.00
2015,12,11,11,07,0.00
2015,12,11,11,08,0.00
2015,12,11,11,09,0.00
2015,12,11,11,10,0.00
2015,12,11,11,11,0.00
2015,12,11,11,12,0.00
2015,12,11,11,13,0.00
2015,12,11,11,14,0.00
2015,12,11,11,15,0.00
2015,12,11,11,16,0.00
2015,12,11,11,17,0.00
2015,12,11,11,18,0.00
2015,12,11,11,19,0.00
2015,12,11,11,20,0.00
2015,12,11,11,21,0.00
2015,12,11,11,22,0.00
2015,12,11,11,23,0.00
2015,12,11,11,24,0.00
2015,12,11,11,25,0.00
2015,12,11,11,26,0.00
2015,12,11,11,27,0.00
2015,12,11,11,28,0.00
2015,12,11,11,29,0.00
2015,12,11,11,30,0.00
2015,12,11,11,31,0.00
2015,12,11,11,32,0.20
2015,12,11,11,33,4.10
2015,12,11,11,34,4.30
2015,12,11,11,35,4.90
2015,12,11,11,36,4.80
2015,12,11,11,37,6.90
2015,12,11,11,38,6.80
2015,12,11,11,39,6.20
2015,12,11,11,40,7.10
2015,12,11,11,41,6.20
2015,12,11,11,42,4.10
2015,12,11,11,43,4.70
2015,12,11,11,44,4.40
2015,12,11,11,45,4.80
2015,12,11,11,46,4.60
2015,12,11,11,47,3.40
2015,12,11,11,48,3.30
2015,12,11,11,49,2.20
2015,12,11,11,50,1.50
2015,12,11,11,51,2.10
2015,12,11,11,52,2.30
2015,12,11,11,53,2.20
2015,12,11,11,54,3.80
2015,12,11,11,55,4.30
2015,12,11,11,56,4.40
2015,12,11,11,57,5.00
2015,12,11,11,58,5.90
2015,12,11,11,59,6.40
2015,12,11,12,00,6.40
2015,12,11,12,01,7.10
2015,12,11,12,02,6.90
2015,12,11,12,03,7.50
2015,12,11,12,04,7.70
2015,12,11,12,05,6.10
2015,12,11,12,06,5.00
2015,12,11,12,07,5.30
2015,12,11,12,08,4.30
2015,12,11,12,09,4.50
2015,12,11,12,10,4.00
2015,12,11,12,11,4.20
2015,12,11,12,12,3.90
2015,12,11,12,13,3.40
2015,12,11,12,14,3.90
2015,12,11,12,15,4.10
2015,12,11,12,16,4.30
2015,12,11,12,17,5.10
2015,12,11,12,18,5.00
2015,12,11,12,19,4.30
2015,12,11,12,20,4.30
2015,12,11,12,21,4.00
2015,12,11,12,22,3.20
2015,12,11,12,23,4.10
2015,12,11,12,24,3.80
2015,12,11,12,25,4.20
2015,12,11,12,26,4.50
2015,12,11,12,27,6.00
2015,12,11,12,28,6.60
2015,12,11,12,29,6.40
2015,12,11,12,30,7.00
2015,12,11,12,31,8.30
2015,12,11,12,32,7.80
2015,12,11,12,33,6.70
2015,12,11,12,34,5.50
2015,12,11,12,35,6.30
2015,12,11,12,36,5.90
2015,12,11,12,37,5.30
2015,12,11,12,38,4.20
2015,12,11,12,39,5.40
2015,12,11,12,40,4.30
2015,12,11,12,41,5.00
2015,12,11,12,42,6.00
2015,12,11,12,43,5.00
2015,12,11,12,44,6.00
2015,12,11,12,45,6.90
2015,12,11,12,46,5.10
2015,12,11,12,47,3.70
2015,12,11,12,48,4.70
2015,12,11,12,49,5.00
2015,12,11,12,50,5.40
2015,12,11,12,51,6.70
2015,12,11,12,52,8.70
2015,12,11,12,53,4.80
2015,12,11,12,54,7.80
2015,12,11,12,55,8.10
2015,12,11,12,56,8.40
2015,12,11,12,57,7.10
2015,12,11,12,58,8.30
2015,12,11,12,59,8.40
2015,12,11,13,00,6.00
2015,12,11,13,01,7.10
2015,12,11,13,02,5.00
2015,12,11,13,03,4.20
2015,12,11,13,04,5.50
2015,12,11,13,05,5.90
2015,12,11,13,06,6.00
2015,12,11,13,07,6.20
2015,12,11,13,08,6.10
2015,12,11,13,09,4.70
2015,12,11,13,10,6.20
2015,12,11,13,11,5.40
2015,12,11,13,12,6.90
2015,12,11,13,13,6.90
2015,12,11,13,14,8.10
2015,12,11,13,15,7.00
2015,12,11,13,16,6.70
2015,12,11,13,17,6.10
2015,12,11,13,18,6.10
2015,12,11,13,19,5.00
2015,12,11,13,20,3.40
2015,12,11,13,21,6.70
2015,12,11,13,22,4.20
2015,12,11,13,23,6.10
2015,12,11,13,24,5.60
2015,12,11,13,25,4.00
2015,12,11,13,26,4.60
2015,12,11,13,27,3.50
2015,12,11,13,28,4.20
2015,12,11,13,29,3.40
2015,12,11,13,30,3.40
2015,12,11,13,31,2.90
2015,12,11,13,32,4.00
2015,12,11,13,33,3.50
2015,12,11,13,34,2.30
2015,12,11,13,35,2.40
2015,12,11,13,36,3.10
2015,12,11,13,37,4.40
2015,12,11,13,38,3.60
2015,12,11,13,39,3.60
2015,12,11,13,40,3.40
2015,12,11,13,41,3.00
2015,12,11,13,42,2.70
2015,12,11,13,43,1.80
2015,12,11,13,44,2.10
2015,12,11,13,45,3.30
2015,12,11,13,46,3.00
2015,12,11,13,47,1.80
2015,12,11,13,48,3.70
2015,12,11,13,49,3.60
2015,12,11,13,50,3.00
2015,12,11,13,51,2.30
2015,12,11,13,52,2.20
2015,12,11,13,53,1.90
2015,12,11,13,54,3.90
2015,12,11,13,55,2.10
2015,12,11,13,56,3.60
2015,12,11,13,57,4.40
2015,12,11,13,58,3.80
2015,12,11,13,59,6.00
2015,12,11,14,00,4.70
2015,12,11,14,01,4.40
2015,12,11,14,02,3.40
2015,12,11,14,03,3.20
2015,12,11,14,04,2.80
2015,12,11,14,05,4.50
2015,12,11,14,06,2.90
2015,12,11,14,07,4.90
2015,12,11,14,08,4.80
2015,12,11,14,09,2.50
2015,12,11,14,10,2.40
2015,12,11,14,11,5.10
2015,12,11,14,12,6.50
2015,12,11,14,13,7.10
2015,12,11,14,14,6.60
2015,12,11,14,15,5.00
2015,12,11,14,16,6.50
2015,12,11,14,17,6.20
2015,12,11,14,18,7.50
2015,12,11,14,19,6.60
2015,12,11,14,20,4.10
2015,12,11,14,21,6.00
2015,12,11,14,22,7.00
2015,12,11,14,23,7.00
2015,12,11,14,24,7.80
2015,12,11,14,25,7.80
2015,12,11,14,26,7.80
2015,12,11,14,27,6.40
2015,12,11,14,28,5.90
2015,12,11,14,29,7.20
2015,12,11,14,30,8.70
2015,12,11,14,31,9.70
2015,12,11,14,32,6.30
2015,12,11,14,33,7.20
2015,12,11,14,34,5.50
2015,12,11,14,35,9.30
2015,12,11,14,36,10.20
2015,12,11,14,37,11.30
2015,12,11,14,38,9.60
2015,12,11,14,39,7.70
2015,12,11,14,40,10.10
2015,12,11,14,41,7.80
2015,12,11,14,42,7.90
2015,12,11,14,43,9.20
2015,12,11,14,44,10.80
2015,12,11,14,45,9.00
2015,12,11,14,46,10.00
2015,12,11,14,47,7.30
2015,12,11,14,48,6.20
2015,12,11,14,49,9.50
2015,12,11,14,50,6.80
2015,12,11,14,51,6.00
2015,12,11,14,52,5.00
2015,12,11,14,53,5.20
2015,12,11,14,54,4.40
2015,12,11,14,55,6.60
2015,12,11,14,56,4.20
2015,12,11,14,57,4.70
2015,12,11,14,58,5.90
2015,12,11,14,59,4.80
2015,12,11,15,00,4.20
2015,12,11,15,01,5.80
2015,12,11,15,02,7.30
2015,12,11,15,03,4.40
2015,12,11,15,04,4.40
2015,12,11,15,05,5.90
2015,12,11,15,06,5.20
2015,12,11,15,07,5.80
2015,12,11,15,08,4.20
2015,12,11,15,09,3.40
2015,12,11,15,10,3.70
2015,12,11,15,11,4.10
2015,12,11,15,12,3.90
2015,12,11,15,13,4.20
2015,12,11,15,14,2.60
2015,12,11,15,15,0.10
2015,12,11,15,16,1.70
2015,12,11,15,17,0.30
2015,12,11,15,18,1.40
2015,12,11,15,19,0.30
2015,12,11,15,20,1.20
2015,12,11,15,21,2.30
2015,12,11,15,22,0.60
2015,12,11,15,23,0.10
2015,12,11,15,24,0.00
2015,12,11,15,25,1.00
2015,12,11,15,26,1.30
2015,12,11,15,27,0.10
2015,12,11,15,28,3.10
2015,12,11,15,29,1.90
2015,12,11,15,30,1.30
2015,12,11,15,31,0.10
2015,12,11,15,32,3.20
2015,12,11,15,33,1.40
2015,12,11,15,34,0.40
2015,12,11,15,35,0.00
2015,12,11,15,36,0.00
2015,12,11,15,37,0.10
2015,12,11,15,38,0.70
2015,12,11,15,39,2.10
2015,12,11,15,40,4.00
2015,12,11,15,41,3.10
2015,12,11,15,42,1.50
2015,12,11,15,43,2.40
2015,12,11,15,44,1.00
2015,12,11,15,45,2.50
2015,12,11,15,46,5.00
2015,12,11,15,47,1.40
2015,12,11,15,48,2.70
2015,12,11,15,49,2.90
2015,12,11,15,50,2.70
2015,12,11,15,51,2.70
2015,12,11,15,52,2.70
2015,12,11,15,53,4.70
2015,12,11,15,54,3.60
2015,12,11,15,55,4.80
2015,12,11,15,56,5.90
2015,12,11,15,57,1.80
2015,12,11,15,58,0.00
2015,12,11,15,59,0.60
2015,12,11,16,00,0.00
2015,12,11,16,01,3.40
2015,12,11,16,02,2.50
2015,12,11,16,03,5.90
2015,12,11,16,04,4.50
2015,12,11,16,05,1.50
2015,12,11,16,06,0.10
2015,12,11,16,07,0.00
2015,12,11,16,08,0.60
2015,12,11,16,09,0.00
2015,12,11,16,10,0.40
2015,12,11,16,11,0.00
2015,12,11,16,12,1.20
2015,12,11,16,13,0.10
2015,12,11,16,14,1.00
2015,12,11,16,15,0.90
2015,12,11,16,16,0.10
2015,12,11,16,17,1.80
2015,12,11,16,18,2.30
2015,12,11,16,19,3.60
2015,12,11,16,20,4.90
2015,12,11,16,21,3.90
2015,12,11,16,22,3.00
2015,12,11,16,23,4.00
2015,12,11,16,24,4.70
2015,12,11,16,25,5.10
2015,12,11,16,26,3.90
2015,12,11,16,27,0.80
2015,12,11,16,28,4.20
2015,12,11,16,29,3.70
2015,12,11,16,30,3.40
2015,12,11,16,31,5.70
2015,12,11,16,32,4.40
2015,12,11,16,33,4.20
2015,12,11,16,34,4.70
2015,12,11,16,35,1.00
2015,12,11,16,36,3.30
2015,12,11,16,37,3.20
2015,12,11,16,38,3.90
2015,12,11,16,39,2.90
2015,12,11,16,40,3.50
2015,12,11,16,41,4.10
2015,12,11,16,42,2.20
2015,12,11,16,43,4.30
2015,12,11,16,44,1.70
2015,12,11,16,45,0.70
2015,12,11,16,46,2.80
2015,12,11,16,47,2.20
2015,12,11,16,48,1.00
2015,12,11,16,49,0.80
2015,12,11,16,50,0.90
2015,12,11,16,51,2.30
2015,12,11,16,52,1.70
2015,12,11,16,53,1.30
2015,12,11,16,54,0.70
2015,12,11,16,55,0.00
2015,12,11,16,56,0.00
2015,12,11,16,57,0.80
2015,12,11,16,58,2.60
2015,12,11,16,59,3.00
2015,12,11,17,00,3.10
2015,12,11,17,01,1.80
2015,12,11,17,02,1.20
2015,12,11,17,03,0.50
2015,12,11,17,04,0.40
2015,12,11,17,05,0.10
2015,12,11,17,06,0.40
2015,12,11,17,07,0.50
2015,12,11,17,08,1.60
2015,12,11,17,09,2.10
2015,12,11,17,10,1.10
2015,12,11,17,11,0.20
2015,12,11,17,12,4.10
2015,12,11,17,13,7.40
2015,12,11,17,14,6.70
2015,12,11,17,15,4.80
2015,12,11,17,16,9.40
2015,12,11,17,17,6.70
2015,12,11,17,18,6.50
2015,12,11,17,19,9.00
2015,12,11,17,20,5.90
2015,12,11,17,21,7.90
2015,12,11,17,22,8.90
2015,12,11,17,23,8.30
2015,12,11,17,24,8.60
2015,12,11,17,25,9.10
2015,12,11,17,26,8.30
2015,12,11,17,27,8.60
2015,12,11,17,28,9.10
2015,12,11,17,29,8.40
2015,12,11,17,30,10.80
2015,12,11,17,31,12.80
2015,12,11,17,32,12.10
2015,12,11,17,33,11.70
2015,12,11,17,34,10.40
2015,12,11,17,35,10.80
2015,12,11,17,36,9.90
2015,12,11,17,37,8.10
2015,12,11,17,38,7.50
2015,12,11,17,39,8.30
2015,12,11,17,40,6.80
2015,12,11,17,41,7.40
2015,12,11,17,42,7.90
2015,12,11,17,43,7.40
2015,12,11,17,44,7.80
2015,12,11,17,45,7.10
2015,12,11,17,46,9.30
2015,12,11,17,47,7.60
2015,12,11,17,48,8.10
2015,12,11,17,49,8.30
2015,12,11,17,50,9.30
2015,12,11,17,51,7.10
2015,12,11,17,52,6.70
2015,12,11,17,53,8.70
2015,12,11,17,54,8.40
2015,12,11,17,55,5.80
2015,12,11,17,56,5.40
2015,12,11,17,57,7.50
2015,12,11,17,58,6.20
2015,12,11,17,59,6.40
2015,12,11,18,00,6.10
2015,12,11,18,01,3.40
2015,12,11,18,02,3.80
2015,12,11,18,03,1.20
2015,12,11,18,04,1.70
2015,12,11,18,05,1.80